sat.trackr.live / text

‹ back to catalog

NEOSSAT

NORAD 39089 · 2013-009D

PAYLOAD ACTIVE UNKNOWN

§ Identity

Operator
Country
CA
Launch date
2013-02-25
Launch site
SRILR
Launch vehicle
Mass (kg)
RCS (m²)
0.38

Purposes: science

External: N2YO · Heavens-Above · Gunter

§ Orbital elements

Epoch: 2026-09-14T18:08:21.183072Z

Period
100.29 min
Inclination
98.4227°
Eccentricity
0.0010671
Mean motion
14.35853044 rev/d
Perigee alt
764.6 km
Apogee alt
779.9 km
Semi-major
7,150.4 km
B*
4.2848e-5
RAAN
75.6900°
Arg perigee
345.7761°
Mean anomaly
14.3123°
Rev number
70,959

§ Raw data

NEOSSAT1 39089U 13009D   26257.75580073  .00000081  00000+0  42848-4 0  99972 39089  98.4227  75.6900 0010671 345.7761  14.3123 14.35853044709599

JSON: /api/v1/satellites/39089 · /tle

For live sub-satellite position, see the globe view (requires WebGL).

§ Visibility from observer

Set your observer location to see the next 7 days of passes ≥ 10°. The values pass through the URL so the page stays shareable.

No JS? Fill the form by hand. The geolocation button needs JavaScript.